Location: Unspecified
(0.0000°N, 0.0000°E)
Time: 18:30:47
(UTC+00:00)

deb OV3-4 - Pass Details

Date: 20 April 2026
Orbit: 581 x 4210 km, 40.6° (Epoch: 13 May)

Event Time Altitude Azimuth Distance (km) Brightness Sun altitude
Rises 20:03:38 0° 290° (WNW) 6,125 ? -30.5°
Reaches altitude 10° 20:09:38 10° 277° (W) 4,369 ? -31.9°
Maximum altitude 20:16:58 21° 234° (SW) 2,665 ? -33.7°
Enters shadow 20:20:35 15° 197° (SSW) 2,599 ? -34.6°
